GW3962 Weather Reports


time (UTC)temp
C
wind
direction
speed
KPH
gust
KPH
rain 1hr
cm
rain 24hr
cm
rain mn
cm
humidity
%
barometer
mb
20260506092559 23 208 9.7 11.3 0.00 0.00 0.00 92 1008.8
20260506092055 23 232 12.9 14.5 0.00 0.00 0.00 92 1008.9
20260506091554 23 238 9.7 11.3 0.00 0.00 0.00 92 1008.9
20260506091051 23 212 11.3 12.9 0.00 0.00 0.00 92 1008.8
20260506090549 23 239 9.7 11.3 0.00 0.00 0.00 92 1008.6
20260506090045 23 214 8.0 9.7 0.00 0.00 0.00 92 1008.8
20260506085542 23 219 17.7 20.9 0.00 0.00 0.00 92 1008.6
20260506085038 23 198 12.9 16.1 0.00 0.00 0.00 92 1008.6
20260506084535 23 196 11.3 14.5 0.00 0.00 0.00 92 1008.5
20260506084031 23 215 8.0 9.7 0.00 0.00 0.00 92 1008.8
20260506083528 23 257 9.7 9.7 0.00 0.00 0.00 92 1008.8
20260506083026 23 180 14.5 16.1 0.00 0.00 0.00 92 1008.6
20260506082523 23 222 12.9 16.1 0.00 0.00 0.00 92 1008.7
20260506082018 23 208 12.9 16.1 0.00 0.00 0.00 92 1008.4
20260506081517 23 213 11.3 14.5 0.00 0.00 0.00 92 1008.5
20260506081014 23 241 9.7 11.3 0.00 0.00 0.00 92 1008.5
20260506080511 23 203 17.7 20.9 0.00 0.00 0.00 92 1008.7
20260506073454 23 203 17.7 24.1 0.00 0.00 0.00 92 1008.8
20260506072952 23 185 20.9 27.4 0.00 0.00 0.00 91 1008.8
20260506072449 23 174 17.7 22.5 0.00 0.00 0.00 91 1009.0
20260506071947 23 194 17.7 20.9 0.00 0.00 0.00 91 1009.2
20260506071444 23 212 16.1 20.9 0.00 0.00 0.00 91 1008.8
20260506070941 23 206 17.7 20.9 0.00 0.00 0.00 91 1008.9
20260506070438 23 203 19.3 22.5 0.00 0.00 0.00 91 1008.9
20260506062416 23 204 25.7 27.4 0.00 0.00 0.00 91 1008.8
20260506061911 23 210 17.7 20.9 0.00 0.00 0.00 91 1008.7
20260506061408 23 218 19.3 27.4 0.00 0.00 0.00 91 1008.9
20260506060906 23 198 14.5 20.9 0.00 0.00 0.00 91 1009.3
20260506060404 23 210 12.9 17.7 0.00 0.00 0.00 91 1008.8
20260506051336 23 231 14.5 17.7 0.00 0.00 0.00 92 1009.0
20260506050833 23 244 12.9 14.5 0.00 0.00 0.00 91 1009.1
20260506050330 23 200 9.7 11.3 0.00 0.00 0.00 91 1008.9
20260506044821 23 179 11.3 14.5 0.00 0.00 0.00 91 1009.1
20260506044319 23 235 9.7 14.5 0.00 0.00 0.00 91 1008.9
20260506043815 23 243 14.5 17.7 0.00 0.00 0.00 91 1008.8
20260506043313 23 193 17.7 20.9 0.00 0.00 0.00 91 1009.3
20260506042811 23 189 11.3 14.5 0.00 0.00 0.00 91 1008.9
20260506042310 23 198 12.9 17.7 0.00 0.00 0.00 91 1008.8
20260506041808 23 194 9.7 11.3 0.00 0.00 0.00 91 1009.0
20260506041305 23 182 17.7 20.9 0.00 0.00 0.00 91 1008.8
20260506040802 23 184 11.3 14.5 0.00 0.00 0.00 90 1009.0
20260506040259 23 203 8.0 8.0 0.00 0.00 0.00 90 1008.9
20260506035756 23 251 8.0 9.7 0.00 0.00 0.00 90 1008.9
20260506035253 24 229 14.5 16.1 0.00 0.00 0.00 90 1008.8
20260506034750 24 221 14.5 17.7 0.00 0.00 0.00 89 1008.6
20260506034247 24 194 8.0 11.3 0.00 0.00 0.00 89 1008.7
20260506033744 24 198 14.5 16.1 0.00 0.00 0.00 89 1008.3
20260506033241 24 175 11.3 14.5 0.00 0.00 0.00 88 1008.5
20260506032738 25 201 12.9 12.9 0.00 0.00 0.00 87 1008.5
20260506032235 25 220 9.7 12.9 0.00 0.00 0.00 87 1008.5
20260506031726 25 184 9.7 14.5 0.00 0.00 0.00 86 1008.4
20260506031224 25 185 4.8 4.8 0.00 0.00 0.00 86 1008.4
20260506030722 25 210 11.3 12.9 0.00 0.00 0.00 86 1008.2
20260506030219 25 205 6.4 8.0 0.00 0.00 0.00 85 1008.2
20260506025716 25 218 6.4 9.7 0.00 0.00 0.00 85 1008.1
20260506025212 25 230 8.0 9.7 0.00 0.00 0.00 85 1008.0
20260506024709 25 259 3.2 3.2 0.00 0.00 0.00 84 1007.9
20260506024205 25 215 8.0 9.7 0.00 0.00 0.00 84 1008.0
20260506023702 25 199 9.7 11.3 0.00 0.00 0.00 83 1008.0
20260506023200 25 216 8.0 9.7 0.00 0.00 0.00 83 1007.8
20260506022656 25 202 4.8 4.8 0.00 0.00 0.00 83 1007.8
20260506022154 25 207 8.0 11.3 0.00 0.00 0.00 83 1007.6
20260506021652 25 179 6.4 8.0 0.00 0.00 0.00 83 1007.2
20260506021148 25 216 12.9 14.5 0.00 0.00 0.00 82 1007.5
20260506020645 25 208 9.7 9.7 0.00 0.00 0.00 82 1007.1
20260506020143 25 210 8.0 9.7 0.00 0.00 0.00 82 1007.2
20260506015640 25 197 6.4 8.0 0.00 0.00 0.00 82 1007.0
20260506015137 26 188 6.4 9.7 0.00 0.00 0.00 82 1006.9
20260506014635 26 194 11.3 14.5 0.00 0.00 0.00 81 1006.9
20260506014131 26 209 6.4 8.0 0.00 0.00 0.00 81 1007.0
20260506013629 26 178 9.7 12.9 0.00 0.00 0.00 81 1006.8
20260506013125 26 176 8.0 9.7 0.00 0.00 0.00 80 1006.9
20260506012621 26 205 6.4 8.0 0.00 0.00 0.00 80 1006.9
20260506012117 26 176 9.7 11.3 0.00 0.00 0.00 80 1006.7
20260506011615 26 187 11.3 12.9 0.00 0.00 0.00 79 1007.0
20260506011111 26 205 8.0 9.7 0.00 0.00 0.00 79 1006.8
20260506010605 26 219 9.7 12.9 0.00 0.00 0.00 78 1006.7
20260506005559 26 217 9.7 11.3 0.00 0.00 0.00 78 1006.9
20260506005055 26 195 14.5 14.5 0.00 0.00 0.00 77 1006.9
20260506004552 26 202 12.9 16.1 0.00 0.00 0.00 77 1006.9
20260506004049 27 187 14.5 20.9 0.00 0.00 0.00 76 1006.9
20260506003545 27 181 9.7 11.3 0.00 0.00 0.00 76 1006.7
20260506003041 27 197 8.0 9.7 0.00 0.00 0.00 76 1007.1
20260506002537 27 196 11.3 12.9 0.00 0.00 0.00 75 1006.9
20260506002033 27 208 11.3 12.9 0.00 0.00 0.00 75 1007.0
20260506001529 27 230 12.9 14.5 0.00 0.00 0.00 75 1007.2
20260506001022 27 189 12.9 14.5 0.00 0.00 0.00 74 1007.2
20260506000519 27 166 11.3 14.5 0.00 0.00 0.00 74 1007.0
20260506000016 27 192 9.7 11.3 0.00 0.00 0.00 75 1006.9
20260505235515 27 198 11.3 12.9 0.00 0.00 0.00 74 1006.8
20260505235011 27 184 14.5 17.7 0.00 0.00 0.00 74 1007.0
20260505234508 27 264 11.3 14.5 0.00 0.00 0.00 74 1006.8
20260505234005 27 199 14.5 20.9 0.00 0.00 0.00 74 1006.6
20260505233502 27 230 19.3 27.4 0.00 0.00 0.00 74 1006.6
20260505233000 27 217 12.9 17.7 0.00 0.00 0.00 74 1006.8
20260505232458 27 210 16.1 20.9 0.00 0.00 0.00 74 1006.6
20260505231954 27 225 17.7 20.9 0.00 0.00 0.00 74 1006.4
20260505231451 27 210 17.7 20.9 0.00 0.00 0.00 74 1006.3
20260505230950 27 224 17.7 22.5 0.00 0.00 0.00 73 1006.6
20260505230447 27 184 14.5 16.1 0.00 0.00 0.00 73 1006.3
20260505225943 27 198 17.7 20.9 0.00 0.00 0.00 72 1006.2
20260505225441 27 228 14.5 16.1 0.00 0.00 0.00 72 1006.1
20260505224936 27 272 14.5 17.7 0.00 0.00 0.00 72 1006.2
20260505224433 27 194 12.9 17.7 0.00 0.00 0.00 72 1006.4
20260505223931 27 220 16.1 17.7 0.00 0.00 0.00 71 1006.3
20260505223427 28 223 19.3 22.5 0.00 0.00 0.00 70 1006.1
20260505222924 28 221 20.9 22.5 0.00 0.00 0.00 70 1006.3
20260505222420 28 239 14.5 20.9 0.00 0.00 0.00 71 1006.4
20260505221916 28 187 19.3 24.1 0.00 0.00 0.00 70 1006.0
20260505221414 28 193 17.7 22.5 0.00 0.00 0.00 70 1006.1
20260505220911 28 194 12.9 16.1 0.00 0.00 0.00 71 1006.2
20260505220407 27 224 12.9 17.7 0.00 0.00 0.00 72 1006.3
20260505215905 28 249 17.7 24.1 0.00 0.00 0.00 70 1006.3
20260505215403 28 219 14.5 14.5 0.00 0.00 0.00 71 1006.2
20260505214901 28 179 16.1 20.9 0.00 0.00 0.00 71 1006.4
20260505214358 28 234 16.1 17.7 0.00 0.00 0.00 71 1006.4
20260505213855 28 213 14.5 16.1 0.00 0.00 0.00 71 1006.4
20260505213353 28 251 8.0 9.7 0.00 0.00 0.00 72 1006.6
20260505212849 28 223 19.3 22.5 0.00 0.00 0.00 70 1006.8
20260505212346 28 186 14.5 16.1 0.00 0.00 0.00 70 1006.9
20260505211842 28 203 12.9 16.1 0.00 0.00 0.00 71 1006.9
20260505211340 28 202 11.3 14.5 0.00 0.00 0.00 70 1006.9
20260505210836 28 233 14.5 17.7 0.00 0.00 0.00 70 1007.0
20260505210333 28 190 12.9 14.5 0.00 0.00 0.00 70 1007.0
20260505205830 28 205 20.9 24.1 0.00 0.00 0.00 71 1007.2
20260505205328 28 229 14.5 17.7 0.00 0.00 0.00 70 1007.0
20260505204824 28 199 17.7 20.9 0.00 0.00 0.00 69 1007.2
20260505204323 28 210 17.7 24.1 0.00 0.00 0.00 69 1007.1
20260505203820 28 178 6.4 9.7 0.00 0.00 0.00 70 1007.2
20260505203316 28 173 22.5 25.7 0.00 0.00 0.00 71 1007.3
20260505202813 28 201 14.5 17.7 0.00 0.00 0.00 71 1007.0
20260505202309 27 221 12.9 14.5 0.00 0.00 0.00 72 1007.2
20260505201806 27 212 19.3 22.5 0.00 0.00 0.00 71 1007.4
20260505201303 27 213 20.9 25.7 0.00 0.00 0.00 71 1007.6
20260505200801 28 230 14.5 17.7 0.00 0.00 0.00 70 1007.6
20260505200258 27 195 16.1 17.7 0.00 0.00 0.00 71 1007.6
20260505195753 27 197 22.5 32.2 0.00 0.00 0.00 71 1007.6
20260505195251 27 191 12.9 16.1 0.00 0.00 0.00 72 1007.7
20260505194748 27 173 14.5 20.9 0.00 0.00 0.00 72 1008.0
20260505194245 27 246 8.0 11.3 0.00 0.00 0.00 72 1007.9
20260505193740 27 198 17.7 20.9 0.00 0.00 0.00 72 1008.1
20260505193238 27 233 19.3 22.5 0.00 0.00 0.00 72 1008.2
20260505192736 26 214 19.3 22.5 0.00 0.00 0.00 73 1008.1
20260505192234 26 205 20.9 27.4 0.00 0.00 0.00 74 1008.2
20260505191732 26 191 17.7 20.9 0.00 0.00 0.00 74 1008.0
20260505191230 27 214 20.9 29.0 0.00 0.00 0.00 74 1007.9
20260505190726 26 173 14.5 17.7 0.00 0.00 0.00 75 1008.0
20260505190225 26 212 24.1 32.2 0.00 0.00 0.00 74 1008.2
20260505185722 26 199 22.5 24.1 0.00 0.00 0.00 75 1008.3
20260505185219 26 295 4.8 9.7 0.00 0.00 0.00 76 1008.6
20260505184715 26 267 12.9 16.1 0.00 0.00 0.00 75 1008.5
20260505184212 26 238 4.8 9.7 0.00 0.00 0.00 77 1008.6
20260505183709 25 237 11.3 12.9 0.00 0.00 0.00 78 1008.8
20260505183207 25 238 12.9 14.5 0.00 0.00 0.00 78 1008.6
20260505182702 26 223 8.0 11.3 0.00 0.00 0.00 78 1009.0
20260505182200 25 216 12.9 14.5 0.00 0.00 0.00 78 1008.8
20260505181656 25 233 16.1 17.7 0.00 0.00 0.00 79 1008.8
20260505181154 25 206 17.7 22.5 0.00 0.00 0.00 78 1008.9
20260505180650 25 196 8.0 12.9 0.00 0.00 0.00 79 1008.9
20260505180147 24 235 14.5 17.7 0.00 0.00 0.00 81 1008.9
20260505175643 25 214 14.5 20.9 0.00 0.00 0.00 80 1009.0
20260505175139 24 214 9.7 12.9 0.00 0.00 0.00 82 1009.1
20260505174636 24 188 16.1 22.5 0.00 0.00 0.00 82 1009.2
20260505174132 24 278 8.0 11.3 0.00 0.00 0.00 82 1009.2
20260505173629 23 234 19.3 24.1 0.00 0.00 0.00 83 1009.2
20260505173126 23 249 11.3 14.5 0.00 0.00 0.00 84 1009.4
20260505172624 23 269 8.0 11.3 0.00 0.00 0.00 85 1009.5
20260505172120 23 245 12.9 17.7 0.00 0.00 0.00 84 1009.4
20260505171615 23 219 14.5 16.1 0.00 0.00 0.00 85 1009.3
20260505171112 23 200 16.1 20.9 0.00 0.00 0.00 85 1009.4
20260505170609 23 198 16.1 17.7 0.00 0.00 0.00 86 1009.5
20260505170106 22 219 11.3 12.9 0.00 0.00 0.00 86 1009.4
20260505165601 22 216 14.5 16.1 0.00 0.00 0.00 86 1009.3
20260505165057 23 210 20.9 24.1 0.00 0.00 0.00 86 1009.4
20260505164552 22 210 12.9 14.5 0.00 0.00 0.00 87 1009.4
20260505164050 22 214 14.5 16.1 0.00 0.00 0.00 88 1009.5
20260505163548 22 208 9.7 14.5 0.00 0.00 0.00 88 1009.4
20260505163045 22 218 11.3 14.5 0.00 0.00 0.00 89 1009.6
20260505162538 22 266 8.0 9.7 0.00 0.00 0.00 89 1009.6
20260505162036 22 210 9.7 12.9 0.00 0.00 0.00 89 1010.0
20260505161532 21 239 8.0 9.7 0.00 0.00 0.00 90 1009.3
20260505161029 22 221 12.9 20.9 0.00 0.00 0.00 90 1009.4
20260505160527 21 238 11.3 14.5 0.00 0.00 0.00 90 1009.2
20260505153003 21 233 12.9 16.1 0.00 0.00 0.00 91 1009.4
20260505152455 21 197 14.5 20.9 0.00 0.00 0.00 91 1009.4
20260505151950 21 224 8.0 11.3 0.00 0.00 0.00 91 1009.5
20260505151446 21 263 11.3 14.5 0.00 0.00 0.00 91 1009.5
20260505150943 21 226 17.7 20.9 0.00 0.00 0.00 91 1009.2
20260505150440 21 219 14.5 17.7 0.00 0.00 0.00 92 1009.4
20260505140410 21 221 22.5 27.4 0.00 0.00 0.00 92 1008.8
20260505124818 20 227 12.9 16.1 0.00 0.00 0.00 92 1007.8
20260505124314 20 208 12.9 14.5 0.00 0.00 0.00 92 1008.1
20260505123804 20 219 14.5 16.1 0.00 0.00 0.00 92 1007.9
20260505123301 20 223 22.5 25.7 0.00 0.00 0.00 92 1008.1
20260505122757 20 207 22.5 24.1 0.00 0.00 0.00 92 1007.8
20260505122255 20 253 16.1 17.7 0.00 0.00 0.00 92 1007.8
20260505121751 20 183 17.7 24.1 0.00 0.00 0.00 92 1007.9
20260505121248 20 212 19.3 25.7 0.00 0.00 0.00 92 1007.9
20260505120744 20 238 17.7 20.9 0.00 0.00 0.00 92 1007.5
20260505120241 20 189 17.7 20.9 0.00 0.00 0.00 92 1007.4
20260505115739 20 210 20.9 27.4 0.00 0.00 0.00 93 1007.6
20260505115237 20 234 19.3 24.1 0.00 0.00 0.00 93 1007.4
20260505114734 20 216 14.5 17.7 0.00 0.00 0.00 93 1007.3
20260505114230 20 210 14.5 14.5 0.00 0.00 0.00 93 1007.2
20260505113727 20 217 17.7 20.9 0.00 0.00 0.00 93 1007.3
20260505113224 20 194 16.1 17.7 0.00 0.00 0.00 93 1007.3
20260505112720 20 227 14.5 16.1 0.00 0.00 0.00 93 1007.5
20260505112218 20 212 14.5 22.5 0.00 0.00 0.00 93 1007.6
20260505111718 20 185 14.5 16.1 0.00 0.00 0.00 93 1007.7
20260505111214 20 216 20.9 25.7 0.00 0.00 0.00 93 1007.4
20260505110709 20 194 17.7 24.1 0.00 0.00 0.00 92 1007.2
20260505110207 20 205 16.1 20.9 0.00 0.00 0.00 92 1007.4
20260505102143 20 217 16.1 17.7 0.00 0.00 0.00 91 1007.7
20260505101642 20 215 9.7 12.9 0.00 0.00 0.00 91 1007.7
20260505101137 20 196 14.5 16.1 0.00 0.00 0.00 91 1007.5
20260505100633 20 226 11.3 14.5 0.00 0.00 0.00 91 1007.8
20260505100131 20 210 17.7 22.5 0.00 0.00 0.00 91 1007.8
20260505095627 20 223 16.1 17.7 0.00 0.00 0.00 91 1007.7
20260505095124 20 195 14.5 17.7 0.00 0.00 0.00 91 1007.7
20260505094620 20 203 16.1 20.9 0.00 0.00 0.00 91 1007.7
20260505094116 20 198 17.7 20.9 0.00 0.00 0.00 91 1007.9
20260505093613 20 220 16.1 20.9 0.00 0.00 0.00 92 1007.8
20260505093110 20 213 16.1 17.7 0.00 0.00 0.00 92 1007.7